Regional Weather Roundup
Issued by NWS Mobile, AL

Home | Current Version | Previous Version | Text Only | Print | Product List | Glossary On
Versions: 1 2 3 4 5 6 7 8 9 10 11 12 13 14 15 16 17 18 19 20 21 22 23 24 25 26 27 28 29 30 31 32 33 34 35 36 37 38 39 40 41 42 43 44 45 46 47 48 49 50
000
ASUS44 KMOB 301510
RWRMOB
REGIONAL WEATHER ROUNDUP
NATIONAL WEATHER SERVICE MOBILE AL
900 AM CST FRI JAN 30 2015

NOTE: "FAIR" INDICATES FEW OR NO CLOUDS BELOW 12,000 FEET WITH NO
      SIGNIFICANT WEATHER AND/OR OBSTRUCTIONS TO VISIBILITY.

  * THESE STATIONS ARE PART OF THE UNIVERSITY OF SOUTH ALABAMA
    MESONET AND ARE NOT UNDER NWS OR FAA QUALITY CONTROL.

ALZ061>064-301600-
COASTAL ALABAMA

CITY           SKY/WX    TMP DP  RH WIND       PRES   REMARKS
MOBILE REG APT PTSUNNY   46  32  58 N18G30    30.38S
BROOKLEY FIELD SUNNY     49  34  56 N17G23    30.39R
USA CAMPUS*    NOT AVBL
DOG RIVER*     NOT AVBL


CITY           SKY/WX    TMP DP  RH WIND       PRES   REMARKS
MOUNT VERNON*  NOT AVBL
SARALAND*      NOT AVBL
BAY MINETTE*   NOT AVBL
LOXLEY*        NOT AVBL
ROBERTSDALE*   NOT AVBL
FAIRHOPE*        N/A     46  34  61 VRB13     30.37R
ELBERTA*         N/A     46  34  61 N10       30.35R
FOLEY*         NOT AVBL
GRAND BAY*     NOT AVBL
DAUPHIN ISLND* NOT AVBL
BON SCOUR NWR* NOT AVBL
GULF SHORES    SUNNY     47  34  61 N16G23    30.36R

$$

ALZ051>060-301600-
INTERIOR SOUTHWEST AND SOUTH CENTRAL ALABAMA

CITY           SKY/WX    TMP DP  RH WIND       PRES   REMARKS
GREENVILLE     SUNNY     46  30  53 N12       30.37R
EVERGREEN      SUNNY     46  32  58 N14G22    30.38R
CASTLEBERRY*   NOT AVBL
ATMORE*          N/A     45  34  65 VRB16     30.39R
DIXIE*           N/A     46  34  61 NW7       30.33R
ANDALUSIA/OPP  SUNNY     51  32  48 N16G23    30.36R
ANDALUSIA*       N/A     45  32  61 NE13      30.34R
FLORALA APT    SUNNY     48  34  58 N14G24    30.36R
FLORALA*         N/A     46  34  61 N12       30.32R

$$

FLZ001>006-301600-
WESTERN FLORIDA PANHANDLE

CITY           SKY/WX    TMP DP  RH WIND       PRES   REMARKS
PENSACOLA      SUNNY     47  33  58 N17G29    30.36R
NAS PENSACOLA  PTSUNNY   49  35  58 N14G24    30.35R
MILTON         MOSUNNY   47  33  58 N20G28    30.36R
WHTNG S FIELD  MOSUNNY   49  34  56 N23G30    30.36R


CITY           SKY/WX    TMP DP  RH WIND       PRES   REMARKS
WALNUT HILL*   NOT AVBL
JAY*           NOT AVBL
DUKE FIELD     MOSUNNY   48  35  60 N12G21    30.34
CRESTVIEW      SUNNY     48  35  60 N8G21     30.36R
VALPARAISO     MOSUNNY   50  36  59 N21       30.33R
DESTIN         SUNNY     51  37  58 N18G30    30.32R

$$

MSZ076-079-301600-
INTERIOR SOUTHEAST MISSISSIPPI

CITY           SKY/WX    TMP DP  RH WIND       PRES   REMARKS
LEAKESVILLE*   NOT AVBL
AGRICOLA*      NOT AVBL

$$

MARINE OBSERVATIONS

STATION/POSITION TIME  TEMP    WIND        PRES    WAVE
                       AIR SEA DIR/SP/G            HT/PER
                 (UTC) (F)     (DEG/KT/KT) (MB)    (FT/S)
PASCAGOULA       1500   46      10/ 17/ 22 1027.9R
PETIT BOIS ISLND 1500   47      10/ 23/ 27 1028.4R
KATRINA CUT      1400   47      20/ 26     1028.1R
CEDAR POINT      1400   45      20/ 19     1027.8R
E DAUPHIN ISLAND 1359   48      10/ 25/ 27 1027.2R
MIDDLE BAY LIGHT 1400   47      10/ 30     1027.1R
USCG MOBILE BAY  1500   46 54   20/ 14/ 21 1027.9R
STATE DOCKS      1500   47 51              1028.5R
MEAHER PARK      1400   46     350/ 10     1029.1R
FORT MORGAN      1500   46      30/ 31/ 34 1027.1R
12 S ORANGE BCH  1500   49 62  360/ 23/ 27 1026.4R   4/ 4
PENSACOLA BAY    1500   49 58  360/ 10/ 16 1027.9R
64 S DAUPHIN ISL 1355   55 68   20/ 21/ 25 1026.8    6/ 6

$$

SELECTED LOCATIONS ACROSS THE REGION

CITY           SKY/WX    TMP DP  RH WIND       PRES   REMARKS
NEW ORLEANS    PTSUNNY   50  39  66 NE20      30.40R
GULFPORT       PTSUNNY   48  36  63 N18G24    30.38R
PASCAGOULA AP  MOSUNNY   48  34  58 N15G26    30.38R
PASCAGOULA*    NOT AVBL
HATTIESBURG    MOSUNNY   46  32  58 N14       30.44R
LAUREL         MOSUNNY   45  30  57 N14G21    30.44R
MERIDIAN       SUNNY     45  30  55 N15G22    30.44R
JACKSON        MOSUNNY   44  30  57 N15G22    30.47R
MONTGOMERY     SUNNY     47  30  51 N13G20    30.38R
TROY           SUNNY     46  31  55 N18       30.36R
KINSTON*       NOT AVBL
GENEVA*        NOT AVBL
ASHFORD*         N/A     45  32  61 NE13      30.34R
DOTHAN         SUNNY     46  32  58 N15G26    30.35R
PANAMA CITY    SUNNY     51  39  63 NW20G26   30.29R

$$




USA.gov is the U.S. government's official web portal to all federal, state and local government web resources and services.